Regional Weather Roundup
Issued by NWS

Home | Current Version | Previous Version | Text Only | Print | Product List | Glossary Off
Versions: 1 2 3 4 5 6 7 8 9 10 11 12 13 14 15 16 17 18 19 20 21 22 23 24 25 26 27 28 29 30 31 32 33 34 35 36 37 38 39 40 41 42 43 44 45 46 47 48 49 50

000
ASUS43 KOAX 300110
RWRNE

WEATHER ROUNDUP FOR NEBRASKA
NATIONAL WEATHER SERVICE OMAHA NE
800 PM CDT WED JUL 29 2015

NOTES: SATELLITE DATA IS BEING USED TO AUGMENT CLOUD COVER ABOVE
       12000 FEET.
       "FAIR" INDICATES FEW OR NO CLOUDS BELOW 12,000 FEET WITH NO
       SIGNIFICANT WEATHER AND/OR OBSTRUCTIONS TO VISIBILITY.

  * THESE STATIONS DO NOT REPORT WEATHER SUCH AS RAIN...SNOW OR FOG.

NEZ001>004-019>022-054>056-300200-
NEBRASKA PANHANDLE

CITY           SKY/WX    TMP DP  RH WIND       PRES   REMARKS
SCOTTSBLUFF    SUNNY     83  53  35 S7        30.18S
ALLIANCE       SUNNY     81  50  33 S14       30.18F
CHADRON        SUNNY     84  49  29 NE8       30.15S
KIMBALL        MOSUNNY   79  49  34 SE12G17   30.23S
SIDNEY         MOSUNNY   79  43  27 S16G22    30.24S
$$

NEZ057>060-069>072-079>082-300200-
SOUTHWEST NEBRASKA

CITY           SKY/WX    TMP DP  RH WIND       PRES   REMARKS
NORTH PLATTE   SUNNY     78  51  38 S6        30.21R
IMPERIAL       SUNNY     81  38  21 S13       30.22R
LEXINGTON      CLEAR     79  52  38 SE10      30.20S
MCCOOK         CLEAR     80  53  39 E8        30.20S
OGALLALA       SUNNY     81  47  30 S10       30.21S
$$

NEZ005>010-023>029-035>040-094-300200-
NORTH CENTRAL NEBRASKA

CITY           SKY/WX    TMP DP  RH WIND       PRES   REMARKS
VALENTINE      SUNNY     84  49  29 SW5       30.15S
AINSWORTH      SUNNY     82  49  31 S9        30.17S
BROKEN BOW     CLEAR     79  54  41 SW5       30.20S
O`NEILL        CLEAR     82  58  45 CALM      30.15S
ORD            CLEAR     79  56  45 SW7       30.16S
THEDFORD       SUNNY     82  50  32 S9        30.20S
$$

NEZ041-046>049-061>064-073>077-083>087-300200-
SOUTH CENTRAL NEBRASKA

CITY           SKY/WX    TMP DP  RH WIND       PRES   REMARKS
GRAND ISLAND   CLEAR     79  54  41 SW6       30.19S
AURORA         PTCLDY    75  60  60 SW5       30.18S
HASTINGS       CLEAR     77  55  46 S3        30.20S
HEBRON         PTCLDY    78  55  45 CALM      30.18S
HOLDREGE       CLEAR     75  58  54 E5        30.20F
KEARNEY *      PTCLDY    77  57  50 SE6       30.20S
YORK           PTCLDY    75  64  69 SW5       30.18S
$$

NEZ011>018-030>034-042>045-300200-
NORTHEAST NEBRASKA

CITY           SKY/WX    TMP DP  RH WIND       PRES   REMARKS
NORFOLK        CLEAR     80  59  48 S7        30.13S
ALBION         CLEAR     80  55  42 W3        30.15S
BLAIR          CLEAR     75  62  63 SW6       30.15S
COLUMBUS *     CLEAR     79  57  47 SW7       30.15S
FREMONT        CLEAR     79  60  52 S6        30.15S
TEKAMAH        CLEAR     78  69  73 S6        30.12S
WAYNE          CLEAR     79  65  63 SW3       30.13S
$$

NEZ050>053-065>068-078-088>093-300200-
SOUTHEAST NEBRASKA

CITY           SKY/WX    TMP DP  RH WIND       PRES   REMARKS
LINCOLN        PTCLDY    80  54  40 SW5       30.16F
OMAHA EPPLEY   PTCLDY    81  57  43 SW7       30.13S
BEATRICE       PTCLDY    79  61  53 CALM      30.17S
FALLS CITY     PTCLDY    79  68  69 CALM      30.14S
NEBRASKA CITY  MOCLDY    78  58  49 CALM      30.16S
PLATTSMOUTH    PTCLDY    76  62  62 CALM      30.15S
$$

NEZ044-045-051>053-067-300200-
OMAHA AREA

CITY           SKY/WX    TMP DP  RH WIND       PRES   REMARKS
OMAHA EPPLEY   PTCLDY    81  57  43 SW7       30.13S
BLAIR          CLEAR     75  62  63 SW6       30.15S
FREMONT        CLEAR     79  60  52 S6        30.15S
MILLARD        PTCLDY    80  60  49 CALM      30.14S
OFFUTT AFB     PTCLDY    78  61  54 SW7       30.13F
PLATTSMOUTH    PTCLDY    76  62  62 CALM      30.15S
WAHOO          FAIR      77  62  59 SW5       30.15S
$$



USA.gov is the U.S. government's official web portal to all federal, state and local government web resources and services.